Find GGSE 3

NORAD ID: 1292 Int'l Des: 1965-016 Owner: NRO/NRL Country: US operational
LEOCIRCULAR

Live Position

Loading 3D Globe...

About GGSE 3

Description loading...

Upcoming Passes

Passes for default location (London). Set your location on the main map for personalized predictions.

Altitude History

Loading altitude history...

Two-Line Element Set

1 1292U 65016C 26106.63500383 .00000047 00000-0 66189-4 0 9990
2 1292 70.0755 83.9827 0018103 23.5033 336.6899 14.01567151115941
Epoch: Apr 16, 2026 • Age: 12 hours

Current Status

Altitude 901.9 km
Velocity 7.40 km/s
Sub-Earth Point -46.46°S, 170.5°E
Type other

Most Searched